DW7281 Weather Reports


time (UTC)temp
C
wind
direction
speed
KPH
gust
KPH
rain 1hr
cm
rain 24hr
cm
rain mn
cm
humidity
%
barometer
mb
20260505111548 18 0 0.0 0.0 0.00 0.00 0.00 82 1022.3
20260505101547 18 0 0.0 0.0 0.00 0.00 0.00 78 1022.3
20260505100051 18 0 0.0 0.0 0.00 0.00 0.00 78 1022.0
20260505094549 19 0 0.0 0.0 0.00 0.00 0.00 78 1022.1
20260505093048 19 0 0.0 0.0 0.00 0.00 0.00 77 1021.9
20260505091610 19 0 0.0 0.0 0.00 0.00 0.00 76 1022.0
20260505090104 19 0 0.0 0.0 0.00 0.00 0.00 75 1021.8
20260505084607 19 0 0.0 0.0 0.00 0.00 0.00 75 1021.6
20260505083104 20 0 0.0 0.0 0.00 0.00 0.00 74 1021.5
20260505081556 20 0 0.0 0.0 0.00 0.00 0.00 73 1021.2
20260505080059 20 0 0.0 0.0 0.00 0.00 0.00 72 1020.8
20260505074550 20 0 0.0 0.0 0.00 0.00 0.00 70 1020.7
20260505073055 20 0 0.0 0.0 0.00 0.00 0.00 66 1020.5
20260505071549 20 0 0.0 0.0 0.00 0.00 0.00 66 1020.5
20260505070054 21 0 0.0 0.0 0.00 0.00 0.00 64 1020.4
20260505064550 21 0 0.0 0.0 0.00 0.00 0.00 62 1020.3
20260505063052 21 0 0.0 0.0 0.00 0.00 0.00 62 1020.2
20260505061547 21 0 0.0 0.0 0.00 0.00 0.00 61 1020.1
20260505060100 21 0 0.0 0.0 0.00 0.00 0.00 62 1020.1
20260505054552 21 0 0.0 0.0 0.00 0.00 0.00 64 1020.0
20260505053050 21 0 0.0 0.0 0.00 0.00 0.00 65 1019.9
20260505051550 21 0 0.0 1.6 0.00 0.00 0.00 65 1020.0
20260505041553 22 0 0.0 0.0 0.00 0.00 0.00 66 1019.7
20260505040056 22 0 0.0 0.0 0.00 0.00 0.00 66 1019.9
20260505034545 22 0 0.0 1.6 0.00 0.00 0.00 63 1019.8
20260505033048 23 0 0.0 4.8 0.00 0.00 0.00 63 1020.1
20260505031544 22 0 0.0 1.6 0.00 0.00 0.00 63 1019.8
20260505030104 22 0 0.0 1.6 0.00 0.00 0.00 63 1020.1
20260505024553 23 0 0.0 1.6 0.00 0.00 0.00 59 1020.2
20260505023051 24 92 0.0 9.7 0.00 0.00 0.00 57 1020.2
20260505021552 23 0 0.0 1.6 0.00 0.00 0.00 59 1020.4
20260505020049 22 0 0.0 24.1 0.00 0.00 0.00 64 1020.8
20260505014607 22 0 0.0 0.0 0.00 0.00 0.00 64 1021.0
20260505013054 22 0 0.0 0.0 0.00 0.00 0.00 64 1021.3
20260505011555 22 0 0.0 0.0 0.00 0.00 0.00 65 1021.6
20260505010058 22 0 0.0 0.0 0.00 0.00 0.00 65 1021.8
20260505004553 21 0 0.0 0.0 0.00 0.00 0.00 68 1022.0
20260505003056 21 0 0.0 0.0 0.00 0.00 0.00 69 1022.4
20260505001555 21 0 0.0 0.0 0.00 0.00 0.00 69 1022.7
20260505000048 21 0 0.0 0.0 0.00 0.00 0.00 72 1022.6
20260504234551 19 0 0.0 0.0 0.00 0.00 0.00 78 1022.8
20260504233047 18 0 0.0 0.0 0.00 0.00 0.00 81 1022.8
20260504231548 17 0 0.0 0.0 0.00 0.00 0.00 86 1022.8
20260504230134 16 0 0.0 0.0 0.00 0.00 0.00 88 1022.7
20260504224543 16 0 0.0 3.2 0.00 0.00 0.00 90 1022.6
20260504223058 16 0 0.0 4.8 0.00 0.00 0.00 92 1022.5
20260504221551 15 349 0.0 6.4 0.00 0.00 0.00 93 1022.5
20260504220050 15 0 0.0 0.0 0.00 0.00 0.00 93 1022.4
20260504214542 15 0 0.0 8.0 0.00 0.00 0.00 93 1022.4
20260504213047 15 0 0.0 8.0 0.00 0.00 0.00 93 1022.2
20260504211620 15 0 1.6 6.4 0.00 0.00 0.00 93 1022.3
20260504210049 15 0 0.0 8.0 0.00 0.00 0.00 92 1022.0
20260504204548 15 0 0.0 0.0 0.00 0.00 0.00 92 1021.9
20260504203050 15 0 0.0 0.0 0.00 0.00 0.00 92 1021.7
20260504201547 15 0 0.0 0.0 0.00 0.00 0.00 92 1021.7
20260504200045 15 0 0.0 8.0 0.00 0.00 0.00 92 1021.6
20260504194550 15 0 1.6 6.4 0.00 0.00 0.00 92 1021.5
20260504193049 15 0 0.0 0.0 0.00 0.00 0.00 92 1021.2
20260504191551 15 0 0.0 4.8 0.00 0.00 0.00 92 1021.1
20260504190059 15 39 3.2 12.9 0.00 0.00 0.00 92 1020.9
20260504184553 15 17 3.2 11.3 0.00 0.00 0.00 92 1020.7
20260504183047 15 0 0.0 11.3 0.00 0.00 0.00 92 1020.7
20260504181559 15 0 0.0 8.0 0.00 0.00 0.00 92 1020.5
20260504180053 15 0 0.0 8.0 0.00 0.00 0.00 91 1020.7
20260504174548 15 0 1.6 11.3 0.00 0.00 0.00 91 1020.7
20260504173055 15 0 1.6 11.3 0.00 0.00 0.00 92 1020.8
20260504171548 15 33 0.0 6.4 0.00 0.00 0.00 91 1020.6